Weather in Oktyabr'sky

Russia / Kamchatka Krai     52°39′34″N   156°14′35″E
temp.,
°C
wind,
m/s
gust,
m/s
humid.,
%
clouds,
%
prec.,
mm/h
press.,
hPa
HPBL,
m
28 february, sun
sun2800:00−12n7108575 0.0 1008136
03:00−13n71081100 0.0 1008132
06:00−12n71081100 0.0 1007156
09:00−12n6983100 0.0 1006160
12:00−8n7108099 0.0 1005477
15:00−5nnw8108399 0.0 1004827
18:00−5nw71187100 0.1 1002637
21:00−6nw81278100 0.1 1002321
1 march, mon
mon100:00−7nw71183100 0.1 1000313
03:00−7wnw81281100 0.1 999345
06:00−7wnw7117899 0.3 999251
09:00−7wnw71176100 0.1 999288
12:00−5w101280100 0.3 10001208
15:00−5w91273100 0.3 10011423
18:00−6w101484100 0.5 1002680
21:00−6w71174100 0.5 1005229
2 march, tue
tue200:00−7w7117698 0.6 1006195
03:00−5w111586100 0.4 1009678
06:00−6wnw81387100 0.9 1012449
09:00−6wnw11168185 0.8 1017524
12:00−6w9107176 1.0 10201164
15:00−7w91072100 0.3 10231279
18:00−9w687299 0.4 1025242
21:00−12wsw2274100 0.0 102866
3 march, wed
wed300:00−12ese4481100 0.0 102752
03:00−11ene4582100 0.0 1023107
06:00−11ene81195100 1.5 1016281
09:00−7e91583100 1.6 1008322
12:00+1ese162684100 2.9 998785
15:00+2se223089100 9.0 988801
18:00+3se193093100 17.1 9791061
21:00+3sse162594100 1.9 975979
4 march, thu
thu400:00−7w182381100 2.1 9861354
03:00−10w151983100 0.3 9961319
06:00−11wnw151979100 0.7 10011370
09:00−10w141874100 0.4 10061482
12:00−9w141875100 0.7 10101845
15:00−7wsw121781100 0.3 10111728
18:00−5sw152091100 1.6 10091319
21:00−3sw162292100 2.3 10071250